Weather History for Owatonna, MN

Change the Weather History Date:

Monday, February 24, 2014

  Actual Average Record
Temperature  
Mean Temperature 3 °F -  
Max Temperature 8 °F 33 °F 59 °F (1976)
Min Temperature -2 °F 14 °F -18 °F (1967)
Degree Days  
Heating Degree Days 62    
Moisture  
Dew Point -3 °F    
Average Humidity 73    
Maximum Humidity 85    
Minimum Humidity 62    
Precipitation  
Precipitation 0.00 in - - ()
Sea Level Pressure  
Sea Level Pressure 30.29 in    
Wind  
Wind Speed 9 mph (West)    
Max Wind Speed 14 mph    
Max Gust Speed -    
Visibility 9 miles    
Events Snow    
Averages and records for this station are not official NWS values.
T = Trace of Precipitation, MM = Missing Value Source: NWS Daily Summary

Daily Weather History Graph

Daily Weather History Graph

Search for Another Location

Airport:

Trip Planner

Search our weather history database for the weather conditions in past years. The results will help you decide how hot, cold, wet, or windy it might be!

Date:

Astronomy

Feb. 24, 2014 Rise Set
Actual Time 6:58 AM CST 5:54 PM CST
Civil Twilight 6:29 AM CST 6:24 PM CST
Nautical Twilight 5:55 AM CST 6:57 PM CST
Astronomical Twilight 5:22 AM CST 7:31 PM CST
Moon 3:04 AM CST (2/24) 12:49 PM CST (2/24)
Length of Visible Light 11h 54m
Length of Day
10h 56m
Waning Crescent, 28% of the Moon is Illuminated
Feb 24
Waning Crescent
Mar 1
New
Mar 8
First Quarter
Mar 16
Full
Mar 23
Last Quarter

Hourly Weather History & Observations

Time (CST) Temp. Windchill Dew Point Humidity Pressure Visibility Wind Dir Wind Speed Gust Speed Precip Events Conditions
12:14 AM 5.0 °F -10.0 °F -0.4 °F 78% 30.26 in 10.0 mi WNW 10.4 mph - N/A   Clear
12:34 AM 5.0 °F -8.1 °F -0.4 °F 78% 30.26 in 10.0 mi West 8.1 mph - N/A   Clear
12:54 AM 3.2 °F -11.3 °F -2.2 °F 78% 30.26 in 10.0 mi West 9.2 mph - N/A   Clear
1:14 AM 1.4 °F -14.5 °F -2.2 °F 85% 30.27 in 10.0 mi West 10.4 mph - N/A   Clear
1:34 AM 3.2 °F -12.2 °F -2.2 °F 78% 30.27 in 10.0 mi West 10.4 mph - N/A   Clear
1:54 AM 3.2 °F -12.2 °F -2.2 °F 78% 30.27 in 10.0 mi West 10.4 mph - N/A   Clear
2:14 AM 3.2 °F -14.6 °F -2.2 °F 78% 30.27 in 10.0 mi West 13.8 mph - N/A   Clear
2:34 AM 1.4 °F -15.3 °F -2.2 °F 85% 30.27 in 10.0 mi West 11.5 mph - N/A   Clear
2:54 AM 1.4 °F -15.3 °F -4.0 °F 78% 30.28 in 10.0 mi West 11.5 mph - N/A   Clear
3:14 AM 1.4 °F -15.3 °F -5.8 °F 72% 30.28 in 10.0 mi West 11.5 mph - N/A   Clear
3:34 AM -0.4 °F -15.7 °F -5.8 °F 78% 30.28 in 10.0 mi West 9.2 mph - N/A   Clear
3:54 AM -0.4 °F -15.7 °F -5.8 °F 78% 30.28 in 10.0 mi West 9.2 mph - N/A   Clear
4:14 AM -0.4 °F -15.7 °F -5.8 °F 78% 30.28 in 10.0 mi West 9.2 mph - N/A   Clear
4:34 AM -0.4 °F -16.7 °F -5.8 °F 78% 30.28 in 10.0 mi West 10.4 mph - N/A   Clear
4:54 AM -0.4 °F -14.7 °F -7.6 °F 72% 30.28 in 10.0 mi WNW 8.1 mph - N/A   Clear
5:14 AM -2.2 °F -18.0 °F -7.6 °F 78% 30.28 in 10.0 mi West 9.2 mph - N/A   Clear
5:34 AM -2.2 °F - -7.6 °F 78% 30.28 in 10.0 mi Calm Calm - N/A   Clear
5:54 AM -2.2 °F - -7.6 °F 78% 30.28 in 10.0 mi Calm Calm - N/A   Clear
6:14 AM -2.2 °F -15.6 °F -7.6 °F 78% 30.29 in 10.0 mi West 6.9 mph - N/A   Clear
6:34 AM -2.2 °F -16.8 °F -7.6 °F 78% 30.29 in 10.0 mi West 8.1 mph - N/A   Clear
6:54 AM -2.2 °F -16.8 °F -9.4 °F 71% 30.29 in 10.0 mi West 8.1 mph - N/A   Clear
7:14 AM -2.2 °F -18.0 °F -7.6 °F 78% 30.29 in 10.0 mi West 9.2 mph - N/A   Clear
7:34 AM -2.2 °F -18.9 °F -7.6 °F 78% 30.30 in 10.0 mi West 10.4 mph - N/A   Clear
7:54 AM -2.2 °F -18.9 °F -7.6 °F 78% 30.31 in 10.0 mi West 10.4 mph - N/A   Clear
8:14 AM -2.2 °F -16.8 °F -7.6 °F 78% 30.31 in 10.0 mi West 8.1 mph - N/A   Clear
8:34 AM -2.2 °F -18.0 °F -7.6 °F 78% 30.32 in 10.0 mi West 9.2 mph - N/A   Clear
8:54 AM -0.4 °F -18.4 °F -7.6 °F 72% 30.31 in 10.0 mi West 12.7 mph - N/A   Clear
9:14 AM -0.4 °F -16.7 °F -7.6 °F 72% 30.31 in 10.0 mi WNW 10.4 mph - N/A   Clear
9:34 AM -0.4 °F -17.6 °F -7.6 °F 72% 30.31 in 10.0 mi WNW 11.5 mph - N/A   Clear
9:54 AM 1.4 °F -14.5 °F -7.6 °F 66% 30.31 in 10.0 mi WNW 10.4 mph - N/A   Clear
10:14 AM 1.4 °F -14.5 °F -5.8 °F 72% 30.31 in 10.0 mi WNW 10.4 mph - N/A   Clear
10:34 AM 1.4 °F -11.3 °F -5.8 °F 72% 30.31 in 10.0 mi WNW 6.9 mph - N/A   Clear
10:54 AM 3.2 °F -10.3 °F -5.8 °F 66% 30.32 in 10.0 mi West 8.1 mph - N/A   Clear
11:14 AM 3.2 °F -10.3 °F -5.8 °F 66% 30.31 in 10.0 mi WNW 8.1 mph - N/A   Clear
11:34 AM 5.0 °F -6.9 °F -4.0 °F 66% 30.31 in 10.0 mi West 6.9 mph - N/A   Clear
11:54 AM 5.0 °F -9.1 °F -4.0 °F 66% 30.32 in 10.0 mi West 9.2 mph - N/A   Clear
12:14 PM 6.8 °F -7.8 °F -2.2 °F 67% 30.31 in 10.0 mi West 10.4 mph - N/A   Clear
12:34 PM 6.8 °F -7.8 °F -2.2 °F 67% 30.31 in 10.0 mi West 10.4 mph - N/A   Clear
12:54 PM 8.6 °F -5.5 °F -2.2 °F 62% 30.30 in 10.0 mi West 10.4 mph - N/A   Clear
1:14 PM 8.6 °F -5.5 °F -0.4 °F 67% 30.30 in 10.0 mi West 10.4 mph - N/A   Clear
1:34 PM 8.6 °F -5.5 °F -0.4 °F 67% 30.30 in 10.0 mi West 10.4 mph - N/A   Clear
1:54 PM 8.6 °F -4.7 °F -2.2 °F 62% 30.28 in 10.0 mi West 9.2 mph - N/A   Clear
2:14 PM 8.6 °F -3.7 °F -0.4 °F 67% 30.27 in 10.0 mi West 8.1 mph - N/A   Clear
2:34 PM 8.6 °F -2.6 °F -0.4 °F 67% 30.27 in 10.0 mi West 6.9 mph - N/A   Clear
2:54 PM 8.6 °F -4.7 °F -0.4 °F 67% 30.28 in 10.0 mi West 9.2 mph - N/A   Clear
3:14 PM 8.6 °F -2.6 °F -0.4 °F 67% 30.26 in 10.0 mi West 6.9 mph - N/A   Clear
3:34 PM 8.6 °F -2.6 °F -0.4 °F 67% 30.26 in 10.0 mi West 6.9 mph - N/A   Clear
3:54 PM 8.6 °F -2.6 °F -0.4 °F 67% 30.26 in 10.0 mi West 6.9 mph - N/A   Clear
4:14 PM 8.6 °F -3.7 °F -0.4 °F 67% 30.26 in 10.0 mi WNW 8.1 mph - N/A   Clear
4:34 PM 8.6 °F -4.7 °F -0.4 °F 67% 30.26 in 10.0 mi WNW 9.2 mph - N/A   Clear
4:54 PM 8.6 °F -3.7 °F -0.4 °F 67% 30.26 in 10.0 mi West 8.1 mph - N/A   Clear
5:14 PM 8.6 °F -3.7 °F -0.4 °F 67% 30.26 in 10.0 mi West 8.1 mph - N/A   Clear
5:34 PM 8.6 °F -3.7 °F -0.4 °F 67% 30.26 in 10.0 mi WNW 8.1 mph - N/A   Clear
5:54 PM 8.6 °F -3.7 °F -0.4 °F 67% 30.27 in 10.0 mi West 8.1 mph - N/A   Scattered Clouds
6:14 PM 8.6 °F -5.5 °F -0.4 °F 67% 30.27 in 10.0 mi WNW 10.4 mph - N/A   Scattered Clouds
6:34 PM 8.6 °F -4.7 °F -0.4 °F 67% 30.28 in 10.0 mi WNW 9.2 mph - N/A   Scattered Clouds
6:54 PM 8.6 °F -6.3 °F -0.4 °F 67% 30.29 in 10.0 mi WNW 11.5 mph - N/A   Mostly Cloudy
7:14 PM 8.6 °F -5.5 °F -0.4 °F 67% 30.28 in 10.0 mi WNW 10.4 mph - N/A   Scattered Clouds
7:34 PM 8.6 °F -5.5 °F -0.4 °F 67% 30.28 in 10.0 mi WNW 10.4 mph - N/A   Scattered Clouds
7:54 PM 8.6 °F -5.5 °F -0.4 °F 67% 30.28 in 10.0 mi WNW 10.4 mph - N/A   Scattered Clouds
8:14 PM 6.8 °F -8.6 °F 1.4 °F 79% 30.29 in 4.0 mi WNW 11.5 mph - N/A Snow Light Snow
8:34 PM 6.8 °F -7.8 °F 1.4 °F 79% 30.29 in 3.0 mi West 10.4 mph - N/A Snow Light Snow
8:54 PM 6.8 °F -6.9 °F 1.4 °F 79% 30.29 in 3.0 mi West 9.2 mph - N/A Snow Light Snow
9:14 PM 6.8 °F -6.9 °F 1.4 °F 79% 30.30 in 3.0 mi WNW 9.2 mph - N/A Snow Light Snow
9:34 PM 6.8 °F -9.3 °F 1.4 °F 79% 30.30 in 3.0 mi West 12.7 mph - N/A Snow Light Snow
9:54 PM 6.8 °F -8.6 °F 1.4 °F 79% 30.30 in 4.0 mi WNW 11.5 mph - N/A Snow Light Snow
10:14 PM 6.8 °F -8.6 °F 1.4 °F 79% 30.30 in 3.0 mi WNW 11.5 mph - N/A Snow Light Snow
10:34 PM 6.8 °F -8.6 °F 1.4 °F 79% 30.30 in 5.0 mi WNW 11.5 mph - N/A Snow Light Snow
10:54 PM 6.8 °F -8.6 °F 1.4 °F 79% 30.30 in 4.0 mi West 11.5 mph - N/A Snow Light Snow
11:14 PM 6.8 °F -6.9 °F 1.4 °F 79% 30.29 in 5.0 mi West 9.2 mph - N/A Snow Light Snow
11:34 PM 5.0 °F -9.1 °F -0.4 °F 78% 30.29 in 5.0 mi West 9.2 mph - N/A Snow Light Snow
11:54 PM 5.0 °F -8.1 °F -0.4 °F 78% 30.30 in 10.0 mi West 8.1 mph - N/A Snow Light Snow